This is the latest recevied weather packets stored in our database for station/object N8VDS-10. If no packets are shown the sender has not sent any weather packets the latest 10 day(s).
| Time | Temp. | Humidity | Pressure | Rain* | Wind** | Luminosity | Snow |
|---|---|---|---|---|---|---|---|
| 1778028107 | 11.11° C | 45% | 1011.5 hPa | 0 mm | - | 1 W/m² | - |
| 1778027803 | 11.11° C | 45% | 1011.5 hPa | 0 mm | - | 1 W/m² | - |
| 1778027500 | 11.11° C | 44% | 1011.4 hPa | 0 mm | - | 2 W/m² | - |
| 1778027195 | 11.11° C | 43% | 1011.4 hPa | 0 mm | - | 3 W/m² | - |
| 1778026892 | 11.11° C | 43% | 1011.3 hPa | 0 mm | - | 3 W/m² | - |
| 1778026588 | 11.11° C | 43% | 1011.4 hPa | 0 mm | - | 5 W/m² | - |
| 1778026285 | 11.11° C | 43% | 1011.1 hPa | 0 mm | - | 6 W/m² | - |
| 1778025982 | 11.11° C | 42% | 1011.1 hPa | 0 mm | - | 7 W/m² | - |
| 1778025680 | 11.11° C | 42% | 1011.1 hPa | 0 mm | - | 10 W/m² | - |
| 1778025378 | 11.67° C | 42% | 1011.1 hPa | 0 mm | - | 11 W/m² | - |
| 1778025074 | 11.67° C | 44% | 1011.2 hPa | 0 mm | - | 13 W/m² | - |
| 1778024771 | 11.67° C | 42% | 1010.8 hPa | 0 mm | - | 18 W/m² | - |
| 1778024468 | 11.67° C | 41% | 1010.8 hPa | 0 mm | - | 20 W/m² | - |
| 1778024166 | 11.67° C | 41% | 1011 hPa | 0 mm | - | 24 W/m² | - |
| 1778023863 | 11.67° C | 41% | 1010.7 hPa | 0 mm | - | 25 W/m² | - |
| 1778023561 | 11.67° C | 40% | 1010.5 hPa | 0 mm | - | 37 W/m² | - |
| 1778023258 | 11.67° C | 39% | 1010.7 hPa | 0 mm | - | 38 W/m² | - |
| 1778022954 | 11.67° C | 39% | 1010.6 hPa | 0 mm | - | 31 W/m² | - |
| 1778022653 | 12.22° C | 39% | 1010.5 hPa | 0 mm | - | 26 W/m² | - |
| 1778022351 | 12.22° C | 38% | 1010.4 hPa | 0 mm | - | 27 W/m² | - |
| 1778022047 | 12.22° C | 40% | 1010.6 hPa | 0 mm | - | 53 W/m² | - |
| 1778021744 | 12.22° C | 39% | 1010.6 hPa | 0 mm | - | 64 W/m² | - |
| 1778021440 | 12.22° C | 38% | 1010.8 hPa | 0 mm | - | 65 W/m² | - |
| 1778021137 | 12.22° C | 38% | 1010.7 hPa | 0 mm | - | 61 W/m² | - |
| 1778020834 | 12.22° C | 39% | 1010.7 hPa | 0 mm | - | 66 W/m² | - |
* Rain latest hour (hover to see other rain measurements)
** Current wind speed in m/s (hover to see current wind gust speed)